{"data":{"norad_id":67957,"intl_designator":"2026-037AB","name":"STARLINK-36829","alt_names":[],"object_type":"PAYLOAD","status":"ACTIVE","operator":null,"country":"US","launch_date":"2026-02-24","launch_site_code":"AFETR","launch_vehicle":null,"mission":null,"orbit_class":"UNKNOWN","rcs_meters":null,"size_class":null,"mass_kg":null,"dimensions":null,"purposes":["comms"],"wikipedia_slug":null,"has_3d_model":false,"image_url":null,"decayed_at":null,"tle_current":{"epoch":"2026-05-25T05:09:26.718048Z","epoch_age_seconds":50342,"freshness":"FRESH","line1":"1 67957U 26037AB  26145.21489257  .00016385  00000+0  60336-3 0  9991","line2":"2 67957  43.0033 118.5988 0000424 267.8253  92.2550 15.27594092 15038","mean_motion":15.27594092,"eccentricity":4.24e-5,"inclination_deg":43.0033,"raan_deg":118.5988,"arg_perigee_deg":267.8253,"mean_anomaly_deg":92.255,"bstar":0.00060336,"rev_number":1503,"period_min":94.26587910632,"perigee_km":482.71598734511,"apogee_km":483.29781234782,"semimajor_km":6861.1438998465,"source":"CELESTRAK","updated_at":"2026-05-25T13:38:21.771720Z"}}}